Weather History for KSLN - September, 2013

Change the Weather History Date:

Sunday, September 22, 2013

  Actual Average Record
Temperature  
Mean Temperature 69 °F 67 °F  
Max Temperature 83 °F 79 °F 99 °F (1937)
Min Temperature 55 °F 55 °F 33 °F (1995)
Degree Days  
Heating Degree Days 0 2  
Month to date heating degree days 3 21  
Since 1 July heating degree days 6 22  
Cooling Degree Days 4 5  
Month to date cooling degree days 257 175  
Year to date cooling degree days 1651 1582  
Growing Degree Days 18 (Base 50)    
Moisture  
Dew Point 49 °F    
Average Humidity 57    
Maximum Humidity 86    
Minimum Humidity 28    
Precipitation  
Precipitation 0.00 in 0.08 in 0.95 in (1955)
Month to date precipitation 1.21 1.98  
Year to date precipitation 27.45 26.32  
Sea Level Pressure  
Sea Level Pressure 29.84 in    
Wind  
Wind Speed 13 mph (SSE)    
Max Wind Speed 25 mph    
Max Gust Speed 31 mph    
Visibility 10 miles    
Events      
T = Trace of Precipitation, MM = Missing Value Source: NWS Daily Summary

Daily Weather History Graph

Daily Weather History Graph

Search for Another Location

Airport or City:

Trip Planner

Search our weather history database for the weather conditions in past years. The results will help you decide how hot, cold, wet, or windy it might be!

Date:

Astronomy

Sep. 22, 2013 Rise Set
Actual Time 7:18 AM CDT 7:27 PM CDT
Civil Twilight 6:51 AM CDT 7:53 PM CDT
Nautical Twilight 6:20 AM CDT 8:24 PM CDT
Astronomical Twilight 5:49 AM CDT 8:56 PM CDT
Moon 9:20 PM CDT (9/22) 10:37 AM CDT (9/22)
Length of Visible Light 13h 01m
Length of Day
12h 08m
Waning Gibbous, 88% of the Moon is Illuminated
Sep 22
Waning Gibbous
Sep 26
Last Quarter
Oct 4
New
Oct 11
First Quarter
Oct 18
Full

Hourly Weather History & Observations

Time (CDT) Temp. Dew Point Humidity Pressure Visibility Wind Dir Wind Speed Gust Speed Precip Events Conditions
12:53 AM 61.0 °F 52.0 °F 72% 29.88 in 10.0 mi South 6.9 mph - N/A   Clear
1:53 AM 63.0 °F 53.1 °F 70% 29.88 in 10.0 mi South 10.4 mph - N/A   Clear
2:53 AM 61.0 °F 53.1 °F 75% 29.87 in 10.0 mi South 10.4 mph - N/A   Clear
3:53 AM 61.0 °F 52.0 °F 72% 29.87 in 10.0 mi South 9.2 mph - N/A   Clear
4:53 AM 57.0 °F 51.1 °F 81% 29.87 in 10.0 mi South 4.6 mph - N/A   Clear
5:53 AM 55.0 °F 51.1 °F 86% 29.88 in 10.0 mi South 5.8 mph - N/A   Clear
6:53 AM 55.9 °F 51.1 °F 84% 29.88 in 10.0 mi South 8.1 mph - N/A   Clear
7:53 AM 57.0 °F 52.0 °F 83% 29.90 in 10.0 mi South 10.4 mph - N/A   Clear
8:53 AM 63.0 °F 53.1 °F 70% 29.91 in 10.0 mi South 8.1 mph - N/A   Clear
9:53 AM 71.1 °F 51.1 °F 49% 29.90 in 10.0 mi South 15.0 mph 24.2 mph N/A   Clear
10:53 AM 75.9 °F 48.9 °F 38% 29.90 in 10.0 mi South 17.3 mph 25.3 mph N/A   Clear
11:53 AM 79.0 °F 45.0 °F 30% 29.88 in 10.0 mi South 16.1 mph 26.5 mph N/A   Clear
12:53 PM 81.0 °F 45.0 °F 28% 29.86 in 10.0 mi South 21.9 mph - N/A   Clear
1:53 PM 82.0 °F 46.0 °F 28% 29.83 in 10.0 mi SSE 16.1 mph 27.6 mph N/A   Clear
2:53 PM 82.9 °F 46.9 °F 28% 29.81 in 10.0 mi South 17.3 mph 25.3 mph N/A   Clear
3:53 PM 82.9 °F 48.0 °F 29% 29.79 in 10.0 mi South 19.6 mph 24.2 mph N/A   Clear
4:53 PM 82.0 °F 48.0 °F 30% 29.77 in 10.0 mi South 18.4 mph 27.6 mph N/A   Clear
5:53 PM 80.1 °F 46.9 °F 31% 29.76 in 10.0 mi SSE 19.6 mph 26.5 mph N/A   Clear
6:53 PM 77.0 °F 48.0 °F 36% 29.76 in 10.0 mi SSE 17.3 mph - N/A   Clear
7:53 PM 71.1 °F 48.0 °F 44% 29.77 in 10.0 mi SSE 10.4 mph - N/A   Clear
8:53 PM 68.0 °F 48.0 °F 49% 29.78 in 10.0 mi SE 11.5 mph - N/A   Clear
9:53 PM 66.0 °F 48.0 °F 52% 29.78 in 10.0 mi SE 11.5 mph - N/A   Clear
10:53 PM 64.0 °F 48.0 °F 56% 29.78 in 10.0 mi SE 13.8 mph - N/A   Clear
11:53 PM 63.0 °F 48.0 °F 58% 29.78 in 10.0 mi SE 13.8 mph - N/A   Clear